Regional Weather Roundup
Issued by NWS

Home | Current Version | Previous Version | Text Only | Print | Product List | Glossary Off
Versions: 1 2 3 4 5 6 7 8 9 10 11 12 13 14 15 16 17 18 19 20 21 22 23 24 25 26 27 28 29 30 31 32 33 34 35 36 37 38 39 40 41 42 43 44 45 46 47 48 49 50

312
ASUS43 KBIS 262231
RWRND
NORTH DAKOTA REGIONAL WEATHER ROUNDUP
NATIONAL WEATHER SERVICE EASTERN NORTH DAKOTA/GRAND FORKS ND
500 PM CDT FRI MAY 26 2017

  NOTE: "FAIR" INDICATES FEW OR NO CLOUDS BELOW 12,000 FEET WITH NO
  SIGNIFICANT WEATHER AND/OR OBSTRUCTIONS TO VISIBILITY.

NDZ001>003-009>011-017-262300-
...NORTHWEST NORTH DAKOTA...

CITY           SKY/WX    TMP DP  RH WIND       PRES   REMARKS
WILLISTON      FAIR      69  33  26 NW20G29   29.77S
MINOT          PTSUNNY   67  38  34 W20G31    29.72S
MINOT AFB      PTSUNNY   66  38  36 NW18G25   29.71S
$$

NDZ018>021-031>035-040>046-262300-
...SOUTHWEST NORTH DAKOTA...

CITY           SKY/WX    TMP DP  RH WIND       PRES   REMARKS
BISMARCK       CLOUDY    67  41  38 NW13      29.79S
DICKINSON      FAIR      65  31  28 NW14G26   29.80S
GARRISON         N/A     64  35  34 NW21G33   29.76R
HETTINGER      PTSUNNY   66  35  31 W13G23    29.86R
$$

NDZ004>008-012>016-024-026-027-054-262300-
...NORTHEAST NORTH DAKOTA...

CITY           SKY/WX    TMP DP  RH WIND       PRES   REMARKS
GRAND FORKS    FAIR      70  46  42 W17       29.69S
GRAND FORKS AF CLOUDY    67  45  44 W17G24    29.71R
DEVILS LAKE    PTSUNNY   64  42  44 W21G26    29.72R
$$

NDZ022-023-025-028>030-036>039-047>053-262300-
...SOUTHEAST NORTH DAKOTA...

CITY           SKY/WX    TMP DP  RH WIND       PRES   REMARKS
JAMESTOWN      CLOUDY    64  42  44 W16G24    29.76R
FARGO          FAIR      71  44  37 W15G30    29.73R
WAHPETON       FAIR      68  39  34 W15G23    29.76R
$$




USA.gov is the U.S. government's official web portal to all federal, state and local government web resources and services.